Theta_e
317 319 320 320 322 321 318 317 332 354 350 343 343 352 350 347 347 347 345 345 346 346 345 350 346 350 349 344 341 344 339 352 360 362 361 361 360 358 358 358 357 353 349 349
320 320 320 321 323 331 320 345 351 348 345 342 340 346 347 345 344 343 343 343 344 344 344 345 344 344 348 339 338 342 354 357 358 362 362 361 361 360 360 360 361 359 357 353
318 321 321 320 324 336 344 344 345 346 342 344 348 347 344 342 342 340 340 340 340 341 343 344 346 350 351 350 350 350 355 357 361 362 363 362 362 361 361 362 363 363 361 359
320 321 321 319 336 342 344 344 346 347 347 347 345 342 340 338 339 338 338 338 340 340 343 343 343 344 346 351 353 358 359 356 361 363 363 363 364 363 363 364 365 365 363 362
320 322 320 323 332 332 341 342 339 344 348 346 344 341 341 337 336 336 335 336 340 343 342 342 341 343 347 349 348 350 351 356 356 361 364 363 366 366 365 366 365 365 364 363
319 322 323 321 329 335 334 340 337 338 339 340 339 341 343 337 335 334 335 337 341 339 338 339 339 341 343 341 341 343 346 349 355 361 362 362 363 365 365 367 366 365 364 364
314 317 322 328 332 328 328 331 334 333 334 335 338 336 336 333 333 335 334 335 338 337 337 337 337 338 338 339 339 342 346 351 357 359 361 362 361 363 362 363 363 363 363 364
312 315 317 330 331 326 331 332 332 331 331 332 333 335 333 331 332 332 332 334 334 335 335 337 336 337 336 336 338 342 345 349 351 359 358 360 361 362 363 364 364 363 362 361
314 314 325 326 328 328 329 330 328 327 328 330 331 334 330 330 328 329 332 333 334 334 335 336 333 332 333 333 337 340 345 346 348 353 360 361 362 363 363 364 363 362 361 360
326 328 327 324 325 326 326 326 325 325 325 327 329 329 328 326 326 326 329 330 331 332 334 333 331 330 330 332 335 338 342 342 345 348 351 353 356 358 359 358 358 357 357 357
319 324 323 323 323 325 324 324 324 324 325 326 326 327 324 325 324 326 329 329 329 331 331 332 329 328 328 330 334 336 337 338 342 345 348 350 348 348 349 348 345 342 344 346
317 321 319 321 320 321 321 325 324 324 324 326 326 326 324 321 323 325 326 329 328 327 331 330 327 325 325 328 331 333 334 336 338 342 344 347 348 346 347 344 341 341 340 340
318 318 319 319 319 319 318 321 321 321 322 323 325 324 324 322 323 324 324 326 327 325 328 328 325 323 324 327 329 331 333 333 336 338 340 342 345 346 345 339 339 341 342 341
316 316 315 315 316 315 317 320 322 323 324 324 324 322 322 321 323 323 323 325 324 324 324 326 324 322 322 324 326 328 329 331 334 334 335 337 340 344 346 344 342 338 337 338
314 312 312 312 313 314 317 319 321 321 321 322 322 320 320 320 321 322 322 321 321 321 322 324 322 319 320 323 323 324 326 329 331 331 330 331 335 338 340 338 335 333 332 332
312 314 313 313 313 314 314 316 318 319 319 320 320 320 321 322 322 321 320 317 317 316 320 322 319 316 317 319 320 320 321 325 326 325 327 327 327 328 331 330 328 326 326 325
313 312 312 313 312 313 314 313 313 316 318 319 319 320 320 321 321 320 320 316 315 315 317 319 319 314 315 317 317 316 317 318 320 321 322 322 322 321 322 324 322 320 319 322
311 311 311 311 312 313 315 314 317 318 318 319 320 320 319 319 317 319 320 315 315 314 317 320 316 314 313 315 316 314 314 314 315 316 316 317 316 317 317 317 317 318 318 320
312 311 313 313 314 314 314 316 318 319 319 319 320 320 319 319 317 318 318 316 313 311 316 319 316 313 311 312 313 313 310 310 310 310 310 311 311 311 312 312 311 313 315 317
312 313 314 314 315 316 315 317 319 318 319 319 319 319 319 318 316 315 313 313 312 311 312 316 314 313 309 310 311 310 308 307 306 307 306 307 306 306 306 307 308 308 310 311
310 312 313 313 314 317 318 318 317 316 316 316 317 318 319 318 315 313 311 310 310 309 308 310 313 311 309 309 310 308 307 305 305 305 304 304 304 303 304 304 304 304 305 307
310 310 312 313 314 314 315 317 316 315 314 316 318 317 318 318 315 314 310 308 309 309 308 307 309 310 307 308 308 308 306 305 304 304 303 303 303 302 302 302 302 302 302 304
310 311 312 313 312 312 313 314 311 312 311 313 316 314 314 316 313 312 308 307 308 308 307 307 308 309 306 305 306 307 306 305 305 304 303 302 302 302 302 302 302 301 302 303
311 311 312 312 310 310 309 309 309 309 310 311 312 316 311 310 309 309 307 307 308 309 309 306 309 309 307 304 303 304 304 304 304 304 303 304 303 302 302 302 301 300 299 299
311 310 311 311 309 308 309 308 308 309 310 311 311 310 312 310 308 308 309 309 308 307 306 306 308 310 308 306 305 304 304 302 302 303 303 304 304 303 303 303 302 301 301 300
311 311 310 309 308 308 307 307 308 310 310 310 310 311 310 310 310 309 309 308 307 307 307 306 306 307 308 307 306 305 305 305 303 302 302 302 302 303 302 302 302 301 301 300
310 309 310 310 310 309 309 310 310 309 309 308 310 311 310 310 309 308 308 307 307 307 306 306 306 306 306 307 307 307 306 305 306 305 304 303 303 303 303 302 301 301 301 301
Wind_Speed
6 5 2 5 9 8 5 5 5 6 7 8 6 13 14 13 13 13 10 11 13 13 12 13 6 4 10 16 18 27 23 16 24 35 35 33 31 27 26 23 24 24 21 21
2 2 4 6 10 12 6 9 8 8 4 7 7 12 13 14 15 12 9 7 7 13 12 17 15 4 13 17 14 11 18 22 22 28 35 34 32 30 27 24 24 24 24 22
3 2 4 5 4 5 8 5 12 6 6 6 11 13 12 13 15 9 8 3 9 3 10 14 16 9 8 15 20 20 23 24 24 29 32 33 32 30 28 26 25 26 25 23
2 2 4 5 8 17 17 12 12 12 9 9 11 10 11 10 12 7 5 4 5 7 10 13 13 10 10 15 12 17 17 15 21 30 32 31 30 31 28 28 27 27 26 24
4 3 4 3 2 3 5 2 10 8 12 11 13 12 8 6 6 7 6 4 9 14 12 12 14 12 11 8 9 9 11 4 23 29 23 26 28 30 30 29 28 28 28 26
2 5 6 4 5 8 7 2 2 5 4 2 2 4 2 3 5 6 11 14 13 10 13 16 14 11 10 12 15 15 16 17 13 6 13 19 24 28 25 25 25 24 25 26
2 2 4 1 4 2 6 5 5 5 3 3 4 3 4 5 5 8 11 13 14 14 13 13 15 14 12 12 18 19 19 19 12 6 7 19 23 21 20 20 21 22 22 22
3 3 4 2 2 5 6 7 9 5 4 5 4 5 5 6 4 6 9 10 13 15 14 13 17 17 15 16 18 16 17 16 14 6 7 13 12 11 14 15 16 18 16 16
5 6 4 3 6 7 11 11 5 7 4 3 4 3 4 2 5 7 6 7 9 15 16 15 16 17 17 19 18 17 16 17 14 13 10 7 2 2 3 5 8 10 11 13
5 3 6 8 7 7 10 9 8 7 7 5 4 3 3 3 2 3 5 8 10 13 16 13 12 15 14 17 17 14 13 14 15 12 9 9 5 6 6 6 4 3 1 4
4 5 6 4 7 9 9 9 8 7 6 6 6 4 5 3 1 0 2 4 6 8 10 10 10 11 14 14 15 15 13 14 13 15 12 2 6 7 8 6 5 5 4 3
5 11 6 5 6 7 8 6 8 6 5 3 3 1 7 4 2 3 4 3 6 8 10 9 9 10 11 12 13 12 10 13 12 13 14 14 5 3 3 2 3 3 4 4
5 7 7 8 9 6 6 7 6 7 7 5 1 1 3 5 5 4 6 7 5 6 9 9 8 11 11 9 10 10 9 11 9 10 10 11 12 10 2 2 3 6 6 8
15 15 8 4 5 6 8 9 10 9 6 7 5 3 4 4 3 3 4 7 7 7 6 5 6 9 9 7 8 8 6 8 8 9 8 7 7 9 9 4 3 5 9 12
8 7 8 8 8 7 11 9 6 5 4 5 6 5 6 4 3 3 4 7 9 10 8 5 7 10 9 6 5 6 6 7 7 8 9 10 8 8 9 7 10 10 11 11
9 13 10 9 8 7 6 6 6 7 6 7 8 6 7 7 7 5 3 6 9 9 9 4 7 11 9 6 5 4 3 4 6 8 10 12 11 10 11 11 11 13 13 13
10 7 7 5 6 6 7 6 6 7 8 13 14 10 6 4 4 4 5 5 5 6 6 6 8 11 10 8 5 5 5 4 7 8 10 10 11 12 11 11 11 11 11 10
10 7 9 10 7 6 5 6 6 8 10 15 16 14 7 4 5 9 8 4 3 4 8 4 7 12 13 12 8 6 5 6 6 9 8 9 9 10 10 9 9 9 9 9
17 11 13 12 11 8 8 8 7 7 6 11 19 15 12 5 5 9 8 4 4 9 8 3 7 11 14 13 10 7 5 6 7 9 8 10 11 10 11 11 9 9 8 9
12 17 17 11 8 8 7 6 12 9 8 19 18 18 13 14 9 8 5 6 5 8 4 4 5 7 13 14 11 9 7 7 8 11 10 13 12 11 12 13 11 10 11 11
9 13 12 9 8 11 11 11 14 14 12 14 14 10 15 15 11 9 6 6 9 10 8 5 3 3 9 14 13 9 8 8 10 10 10 14 13 12 13 14 13 12 12 12
13 11 11 11 13 10 10 12 15 14 12 13 15 14 16 18 12 10 10 7 8 7 4 1 5 5 8 10 10 11 10 11 13 13 12 12 14 14 15 14 15 13 13 14
14 12 13 11 13 14 18 20 18 16 15 15 16 17 16 20 25 15 8 6 8 7 4 6 4 12 12 12 13 15 14 15 16 14 13 15 17 15 16 17 18 14 15 16
14 13 16 15 17 19 14 15 17 16 16 13 17 21 18 17 15 11 8 8 5 5 10 13 8 14 11 13 15 17 16 17 18 18 18 20 20 18 19 21 20 17 16 17
15 13 12 12 12 11 13 11 12 12 11 12 15 15 16 16 17 13 8 8 9 11 14 19 9 7 6 8 10 12 15 15 17 16 17 20 21 20 20 18 16 15 15 15
12 12 12 11 11 12 11 9 8 7 7 6 11 13 12 8 7 7 4 7 11 14 15 18 20 10 5 3 4 6 8 10 12 14 14 15 17 17 18 18 16 14 15 16
8 9 9 10 9 11 10 8 12 9 1 5 13 17 18 12 7 7 11 13 10 8 10 13 13 14 18 4 9 8 6 6 6 7 10 10 11 12 12 12 11 10 10 11
Wind_Direction
201 210 300 299 315 323 173 161 134 197 179 148 175 101 101 98 73 63 353 16 27 36 20 21 49 243 177 222 257 281 294 290 246 244 233 229 230 228 230 229 237 240 238 241
250 281 9 310 348 30 75 117 103 142 105 132 148 122 114 108 103 71 23 342 38 48 11 18 36 55 190 211 231 293 275 305 282 241 235 230 231 230 229 230 236 241 240 240
249 302 29 342 82 97 62 20 139 151 185 135 95 92 102 100 99 109 190 15 50 358 34 24 26 33 327 290 288 304 292 308 287 231 229 229 232 232 231 233 234 237 241 242
183 46 175 234 115 108 88 47 61 91 129 103 110 104 96 105 118 160 81 61 68 53 49 39 33 30 345 322 317 326 310 295 290 230 229 231 233 233 233 234 233 235 239 242
132 168 288 93 118 126 135 10 7 79 113 126 122 91 69 99 113 121 125 81 73 81 68 53 36 13 359 1 351 340 341 311 264 231 231 235 231 236 234 235 236 237 240 242
129 150 192 204 100 114 115 116 339 76 54 101 143 72 85 59 86 95 101 87 79 67 61 51 39 27 16 2 357 349 338 321 308 318 227 238 241 236 238 238 240 243 244 246
178 178 266 336 300 247 144 191 115 115 92 49 100 164 143 117 84 109 98 97 92 76 62 41 42 33 20 2 357 343 333 340 330 310 264 232 242 235 241 244 247 252 252 250
139 140 251 272 3 163 146 99 116 88 62 64 31 79 62 56 53 83 103 102 95 82 62 44 36 33 17 359 351 344 341 346 2 6 227 217 238 254 258 257 259 262 259 251
165 199 240 343 129 111 118 123 126 120 133 97 55 57 29 45 54 66 100 82 93 90 73 59 38 27 12 358 352 353 355 2 10 27 51 68 184 262 239 263 263 267 266 255
93 291 133 107 103 118 129 129 139 142 149 141 133 160 97 78 39 41 65 88 97 88 94 79 44 26 11 357 355 359 5 11 19 23 33 49 78 95 90 81 78 64 338 266
74 80 72 42 134 144 135 132 127 143 149 144 130 151 132 142 214 191 98 58 58 87 92 91 66 34 3 356 358 357 4 13 19 29 36 44 72 77 75 68 64 56 57 30
200 175 137 175 174 133 126 143 148 136 135 147 118 159 157 175 125 123 123 134 76 49 82 90 60 32 7 354 353 0 8 14 16 26 35 55 39 46 73 52 14 31 5 345
149 141 128 133 106 113 125 161 160 151 154 160 192 244 161 176 159 122 77 100 110 69 71 92 47 21 4 356 346 356 8 16 28 24 23 38 41 41 169 53 44 46 23 354
113 110 80 119 146 114 108 101 130 129 134 159 180 219 190 184 146 125 64 107 95 90 60 60 38 18 2 351 337 335 354 15 43 37 22 33 40 47 62 69 97 34 16 1
125 112 140 135 127 124 131 125 124 154 165 176 204 207 185 188 153 108 44 75 84 63 34 28 22 5 0 357 341 336 347 23 61 58 50 49 58 66 74 83 76 50 16 8
125 123 127 132 153 154 156 178 174 196 184 173 181 184 186 200 186 152 112 75 69 45 27 16 16 4 2 5 356 7 8 54 74 70 64 57 59 65 76 75 68 59 39 18
119 128 134 133 160 180 193 204 200 199 176 176 188 184 191 229 151 179 129 77 68 62 35 9 16 10 14 22 28 24 34 42 77 71 72 69 67 68 74 83 79 65 51 45
117 112 122 133 123 110 90 133 140 165 177 200 188 174 175 213 225 196 166 149 81 59 36 82 41 27 23 27 36 41 48 63 75 83 80 85 84 87 87 87 81 74 62 63
117 113 111 108 112 98 138 130 127 129 159 182 175 171 159 170 168 144 160 169 61 54 22 111 33 31 31 28 34 52 64 78 91 86 90 95 87 90 92 90 83 79 78 73
100 109 111 109 91 107 126 112 135 122 140 162 154 158 160 175 191 157 143 93 36 54 21 77 55 21 31 30 37 49 69 86 96 94 91 93 90 90 92 94 92 86 84 83
99 111 117 118 110 103 109 135 138 129 129 144 148 150 166 179 169 123 81 76 54 53 40 22 29 32 32 35 34 53 72 86 89 91 92 92 92 90 90 92 91 90 92 91
108 105 118 108 121 111 121 130 128 128 123 141 139 136 132 138 152 155 202 139 158 135 157 251 191 159 76 64 76 75 80 86 87 86 85 94 100 95 91 95 95 95 98 100
117 118 104 115 129 109 105 122 119 117 105 106 159 144 141 161 166 180 138 137 138 143 95 39 147 156 105 91 85 82 85 89 90 95 103 103 99 100 101 101 97 95 100 100
118 116 101 123 124 115 103 112 115 114 105 112 139 171 159 141 146 158 141 123 74 61 33 31 153 149 114 105 102 97 93 92 93 97 98 97 99 104 104 99 99 99 95 94
123 122 118 129 114 115 123 128 124 123 110 97 99 121 162 162 154 146 133 93 52 62 64 46 48 142 128 114 103 95 91 93 94 97 97 96 95 92 91 93 97 98 99 99
129 139 146 145 147 156 149 140 130 138 130 97 137 131 131 143 159 154 137 86 82 74 61 60 57 48 238 229 190 147 122 105 96 96 93 93 97 98 101 100 103 111 108 104
140 147 138 137 138 152 151 143 142 119 88 121 165 170 163 198 191 165 127 108 88 59 36 24 22 31 26 3 212 217 200 165 133 119 113 111 110 113 122 125 134 127 116 106